STARLINK-35511, 66344

Orbit data source: Space-Track

STARLINK-35511, 66344 is a payload satellite owned by SpaceX/Seattle (US) in LEO that was launched on Thu, 06 Nov 2025 UTC via an FALCON 9 launch vehicle from the Air Force Eastern Test Range (AFETR). Payload-class satellites include a variety of spacecraft equipped with specific instruments for various scientific and technological missions. These include communications satellites like Starlink; space stations such as the ISS; scientific satellites like the Hubble; Earth observation satellites from companies like Planet Labs, Umbra, and HawkEye 360; GPS; miniature CubeSats for education and research; and military/defense satellites.

Loading next visibility...
Identifier
66344, 2025-253AB
Orbit
LEO
Country
Flag of USUS
Related business
Manufacturer
SpaceX/Seattle
Mission
Operational Commercial Communications
Bus & Motor
STARLINK V2MO, Unknown motor
Mass
575 kg wet, ~530 kg dry
Launch date (UTC)
2025-11-06 (7 months ago)
Launch vehicle
FALCON 9
Launch site
Air Force Eastern Test Range (AFETR)
Object type
Payload
Rocket body
Debris
Shape & HBR
Box + 2 Pan, 17.7 m
Radar Cross Section
36.964 m², Large (>1 m²)

Expand to show TLE details & history
Last TLE update: 13 hours ago

TLE from 13 hours ago
0 STARLINK-35511
1 66344U 25253AB  26170.59357284  .00011909  00000-0  44153-3 0  9999
2 66344  42.9984 356.6289 0001211 242.5774 117.4954 15.27583850 35830
Epoch: 2026-06-19T14:14Z
TLE epoch observation values (Epoch: 2026-06-19T14:14:44.693Z)
Latitude
-0.00005°
Longitude
-124.87769°
Altitude
483.196 km
Speed
7.625 km/s
True Right ascension
23h 46m 30s
True Declination
0° 00' 00"
Sunlit
Object was in daylight at epoch
Visualization orbit readout
Latitude
Unknown
Longitude
Unknown
Altitude
Unknown
Speed
Unknown
Apparent Right ascension
Unknown
Apparent Declination
Unknown
Sunlit
N/A
Visualization observer readout
Local Sidereal Time
14:34:29
Azimuth
Unknown
Elevation
Unknown
Doppler factor
Unknown
Orbital elements
Apogee altitude
485.814 km
Perigee altitude
484.152 km
Semi-major axis
6,863.12 km
Eccentricity
0.00012
Inclination
42.9984°
RAAN
356.6289°
Arg. of periapsis
242.5774°
True anomaly
117.50771°
Mean anomaly
117.4954°
Eccentric anomaly
117.50155°
Mean motion
3.81734 °/min
Orbital period
94.31 mins
BSTAR
0.00044153
Loading maneuver chart data...
Computing Atmospheric mass density...
Loading historical data...
Loading historical data...
Loading historical data...
Loading historical data...
Loading historical data...
Loading historical data...
Loading historical data...

Documentation

Showing up to 5 results
|